Regional Weather Roundup
Issued by NWS

Home | Current Version | Previous Version | Text Only | Print | Product List | Glossary On
Versions: 1 2 3 4 5 6 7 8 9 10 11 12 13 14 15 16 17 18 19 20 21 22 23 24 25 26 27 28 29 30 31 32 33 34 35 36 37 38 39 40 41 42 43 44 45 46 47 48 49 50
006
ASUS43 KDTX 231110
RWRMI
MICHIGAN HOURLY REGIONAL WEATHER ROUNDUP
NATIONAL WEATHER SERVICE DETROIT/PONTIAC MI
600 AM EST TUE JAN 23 2018

NOTE: "FAIR" INDICATES FEW OR NO CLOUDS BELOW 12,000 FEET WITH NO
SIGNIFICANT WEATHER AND/OR OBSTRUCTION TO VISIBILITY.

MIZ047>049-052>055-059>063-066>070-074>076-081>083-231200-
SOUTHEAST LOWER MICHIGAN

CITY           SKY/WX    TMP DP  RH WIND       PRES   REMARKS
ADRIAN         LGT RAIN  36  33  89 W10G17    29.57R WCI  28
ALMA           FAIR      36  36 100 S10       29.46R WCI  28
ANN ARBOR      LGT RAIN  38  35  89 S14       29.53R WCI  30
BAD AXE        CLOUDY    41  41 100 SW8       29.43R
CARO           FAIR      39  37  92 SW14G20   29.44R WCI  31
DETROIT CITY   FAIR      40  37  89 SW9       29.50S WCI  34
DETROIT        CLOUDY    39  35  86 SW18      29.53R WCI  30
FLINT          FAIR      38  33  82 SW12      29.48S WCI  30
GROSSE ILE     CLOUDY    39  35  85 SW10      29.53R WCI  32
HILLSDALE      RAIN      34  32  93 SW9G16    29.53R WCI  26
HOWELL         CLOUDY    38  35  89 SW10G16   29.48S WCI  31

CITY           SKY/WX    TMP DP  RH WIND       PRES   REMARKS
JACKSON        CLOUDY    38  33  82 S13       29.52R WCI  30
LAMBERTVILLE   DRIZZLE   39  33  78 SW12G21   29.57R WCI  32
LANSING        FAIR      37  33  85 SW13      29.49R WCI  29
LAPEER         FAIR      40  36  84 SW13      29.46S WCI  33
MONROE         DRIZZLE   38  33  80 SW13G18   29.54R WCI  31
MT. CLEMENS    MOCLDY   N/A N/A N/A SW12        N/A
PONTIAC        CLOUDY    38  35  89 SW8       29.46F WCI  32
PORT HOPE        N/A     42  41  96 SW6       29.40R
PORT HURON     FAIR      39  37  93 SW5       29.47S
TRI CITIES     CLOUDY    39  37  92 SW14      29.46R WCI  31
MIDLAND        CLOUDY    39  38  97 SW9G16    29.44R WCI  33
TROY           CLOUDY    41  38  90 S8        29.50S
SAGINAW HB     CLOUDY    37  34  87 SW13      29.46R WCI  29
$$
MIZ043>046-050>051-056>058-064>065-071>073-077>080-231200-
SOUTHWEST LOWER MICHIGAN

CITY           SKY/WX    TMP DP  RH WIND       PRES   REMARKS
BATTLE CREEK   CLOUDY    37  33  85 SW12      29.52R WCI  29
BENTON HARBOR  CLOUDY    37  31  78 SW10      29.54R WCI  30
BIG RAPIDS     CLOUDY    36  34  94 SW7       29.41S WCI  30
COLDWATER      MIX PCPN  35  35 100 SW8       29.55R WCI  28
FREMONT        CLOUDY    35  34  95 S5        29.40F FOG     WCI  31
HOLLAND        CLOUDY    35  32  88 W13       29.49R WCI  26
GRAND RAPIDS   CLOUDY    36  33  89 SW16G26   29.47R WCI  26
IONIA          CLOUDY    36  33  88 S14       29.47R WCI  27
KALAMAZOO      CLOUDY    38  32  79 SW10      29.53R WCI  31
LUDINGTON      LGT SNOW  32  32 100 N12G17    29.43R WCI  23
MARSHALL       DRIZZLE   37  35  93 S9        29.52R WCI  30
MOUNT PLEASANT CLOUDY    38  37  94 SW8       29.43R WCI  33
MUSKEGON       CLOUDY    36  33  89 W14G22    29.44R FOG     WCI  27
SOUTH HAVEN    CLOUDY    36  32  87 W9        29.53R WCI  29
$$
MIZ016>042-231200-
NORTHERN LOWER MICHIGAN

CITY           SKY/WX    TMP DP  RH WIND       PRES   REMARKS
ALPENA         CLOUDY    30  30 100 N14       29.47R FOG     WCI  19
BEAVER ISLAND  CLOUDY    22  20  93 N5        29.57S FOG     WCI  15
BELLAIRE       LGT SNOW  31  30  99 N6        29.49R WCI  25
CADILLAC       LGT RAIN  35  34  99 N6        29.39S WCI  29
CHARLEVOIX     CLOUDY    26  26 100 N5        29.55R FOG     WCI  20
FRANKFORT      LGT SNOW  29  28  96 N12G24    29.49R WCI  20
GAYLORD          N/A     26  26 100 NE7G17    29.44R FOG     WCI  18
GRAYLING       RAIN      32  31  96 NE8       29.42S WCI  25
HARBOR SPRINGS CLOUDY    24  22  95 NE6       29.52R WCI  16
HOUGHTON LAKE  RAIN      34  33  96 N8        29.40S WCI  27
MANISTEE       MIX PCPN  33  32  96 N8        29.45R WCI  26
OSCODA         CLOUDY    34  34  99 W3        29.42R
PELLSTON       LGT SNOW  22  20  92 NE12      29.54S FOG     WCI  10
ROGERS CITY    CLOUDY    26  26  97 NE3       29.51R FOG
TRAVERSE CITY  CLOUDY    31  29  92 N12G21    29.47R FOG     WCI  22
$$
MIZ007>008-015-231200-
EASTERN UPPER MICHIGAN

CITY           SKY/WX    TMP DP  RH WIND       PRES   REMARKS
KINROSS        LGT SNOW  16  12  86 N10       29.58R FOG     WCI   3
MACKINAC ISLAN CLOUDY    19  18  97 N14G21    29.55S FOG     WCI   6
NEWBERRY       CLOUDY    16  15  97 N13       29.59R WCI   2
S. S. MARIE    MIX PCPN  19  11  70 NE9       29.59R WCI   8
MUNISING         N/A     22  21  96 N24       29.66R WCI   5
$$
MIZ004>006-011>014-085-231200-
CENTRAL UPPER MICHIGAN

CITY           SKY/WX    TMP DP  RH WIND       PRES   REMARKS
MANISTIQUE     CLOUDY    19  19 100 N14       29.60R WCI   6
ESCANABA       FLURRIES  24  21  88 N14G21    29.63R WCI  12
MENOMINEE      FLURRIES  25  22  88 N18G28    29.62R WCI  11
SAWYER-GWINN   SNOW      21  19  93 N22G31    29.64R VSB 1/2 WCI   5
$$
MIZ001>003-009>011-084-231200-
WESTERN UPPER MICHIGAN

CITY           SKY/WX    TMP DP  RH WIND       PRES   REMARKS
IRON MOUNTAIN  FLURRIES  24  18  77 N15G21    29.64R WCI  11
HOUGHTON       MIX PCPN  20  14  77 N13G28    29.78R WCI   7
COPPER HARBOR    N/A     21  18  88 NE26G33   29.82R WCI   4
IRONWOOD       MIX PCPN  18  16  92 N10G16    29.84R WCI   6
$$

ABBREVIATIONS USED IN REMARKS
   TC - TEMPERATURE IN CELSIUS
  WCI - WIND CHILL INDEX
   HX - HEAT INDEX
  VSB - VISIBILITY





USA.gov is the U.S. government's official web portal to all federal, state and local government web resources and services.